History Data

Date (GMT-7:00) CPM ACPM uSv/h Latitude Longitude Altitude CO CO2 TVOC HCHO Air Pressure Temperature Humidity Type
2026-05-19 19:19:55 20 19.90 0.100000 41.649648 41.62752893 0 0 0 0 0 0 0 0 STD5.60
2026-05-19 19:14:53 27 20.00 0.135000 41.649648 41.62752893 0 0 0 0 0 0 0 0 STD5.60
2026-05-19 19:09:51 23 17.00 0.115000 41.649648 41.62752893 0 0 0 0 0 0 0 0 STD5.60
2026-05-19 19:04:49 21 17.50 0.105000 41.649648 41.62752893 0 0 0 0 0 0 0 0 STD5.60
2026-05-19 18:59:47 21 18.90 0.105000 41.649648 41.62752893 0 0 0 0 0 0 0 0 STD5.60
2026-05-19 18:54:45 17 17.80 0.085000 41.649648 41.62752893 0 0 0 0 0 0 0 0 STD5.60
2026-05-19 18:49:44 16 18.10 0.080000 41.649648 41.62752893 0 0 0 0 0 0 0 0 STD5.60
2026-05-19 18:44:42 15 18.50 0.075000 41.649648 41.62752893 0 0 0 0 0 0 0 0 STD5.60
2026-05-19 18:39:41 20 19.90 0.100000 41.649648 41.62752893 0 0 0 0 0 0 0 0 STD5.60
2026-05-19 18:19:29 18 19.80 0.090000 41.649648 41.62752893 0 0 0 0 0 0 0 0 STD5.60
2026-05-19 18:14:27 19 19.60 0.095000 41.649648 41.62752893 0 0 0 0 0 0 0 0 STD5.60
2026-05-19 18:09:25 19 17.60 0.095000 41.649648 41.62752893 0 0 0 0 0 0 0 0 STD5.60
2026-05-19 18:04:23 19 16.70 0.095000 41.649648 41.62752893 0 0 0 0 0 0 0 0 STD5.60
2026-05-19 17:59:21 17 18.90 0.085000 41.649648 41.62752893 0 0 0 0 0 0 0 0 STD5.60
2026-05-19 17:54:19 17 21.20 0.085000 41.649648 41.62752893 0 0 0 0 0 0 0 0 STD5.60
2026-05-19 17:49:17 17 19.20 0.085000 41.649648 41.62752893 0 0 0 0 0 0 0 0 STD5.60
2026-05-19 17:44:15 19 18.80 0.095000 41.649648 41.62752893 0 0 0 0 0 0 0 0 STD5.60
2026-05-19 17:39:13 23 20.00 0.115000 41.649648 41.62752893 0 0 0 0 0 0 0 0 STD5.60
2026-05-19 17:34:11 15 17.90 0.075000 41.649648 41.62752893 0 0 0 0 0 0 0 0 STD5.60
2026-05-19 17:29:09 20 16.90 0.100000 41.649648 41.62752893 0 0 0 0 0 0 0 0 STD5.60
2026-05-19 17:24:07 21 17.40 0.105000 41.649648 41.62752893 0 0 0 0 0 0 0 0 STD5.60
2026-05-19 17:19:03 20 20.20 0.100000 41.649648 41.62752893 0 0 0 0 0 0 0 0 STD5.60
2026-05-19 17:14:01 19 20.10 0.095000 41.649648 41.62752893 0 0 0 0 0 0 0 0 STD5.60
2026-05-19 17:08:59 19 17.70 0.095000 41.649648 41.62752893 0 0 0 0 0 0 0 0 STD5.60
2026-05-19 17:03:57 16 16.00 0.080000 41.649648 41.62752893 0 0 0 0 0 0 0 0 STD5.60
2026-05-19 16:58:55 12 16.50 0.060000 41.649648 41.62752893 0 0 0 0 0 0 0 0 STD5.60
2026-05-19 16:53:53 24 17.20 0.120000 41.649648 41.62752893 0 0 0 0 0 0 0 0 STD5.60
2026-05-19 16:48:51 10 15.80 0.050000 41.649648 41.62752893 0 0 0 0 0 0 0 0 STD5.60
2026-05-19 16:43:49 13 15.60 0.065000 41.649648 41.62752893 0 0 0 0 0 0 0 0 STD5.60
2026-05-19 16:38:47 17 17.40 0.085000 41.649648 41.62752893 0 0 0 0 0 0 0 0 STD5.60
2026-05-19 16:33:45 20 17.80 0.100000 41.649648 41.62752893 0 0 0 0 0 0 0 0 STD5.60
2026-05-19 16:28:43 15 16.70 0.075000 41.649648 41.62752893 0 0 0 0 0 0 0 0 STD5.60
2026-05-19 16:23:41 21 16.50 0.105000 41.649648 41.62752893 0 0 0 0 0 0 0 0 STD5.60
2026-05-19 16:18:37 16 15.50 0.080000 41.649648 41.62752893 0 0 0 0 0 0 0 0 STD5.60
2026-05-19 16:13:35 16 16.00 0.080000 41.649648 41.62752893 0 0 0 0 0 0 0 0 STD5.60
2026-05-19 16:08:32 15 18.00 0.075000 41.649648 41.62752893 0 0 0 0 0 0 0 0 STD5.60
2026-05-19 16:03:30 28 18.50 0.140000 41.649648 41.62752893 0 0 0 0 0 0 0 0 STD5.60
2026-05-19 15:58:28 14 19.50 0.070000 41.649648 41.62752893 0 0 0 0 0 0 0 0 STD5.60
2026-05-19 15:53:26 22 19.70 0.110000 41.649648 41.62752893 0 0 0 0 0 0 0 0 STD5.60
2026-05-19 15:48:24 16 16.90 0.080000 41.649648 41.62752893 0 0 0 0 0 0 0 0 STD5.60
2026-05-19 15:43:22 17 17.00 0.085000 41.649648 41.62752893 0 0 0 0 0 0 0 0 STD5.60
2026-05-19 15:38:20 22 17.90 0.110000 41.649648 41.62752893 0 0 0 0 0 0 0 0 STD5.60
2026-05-19 15:33:18 23 17.20 0.115000 41.649648 41.62752893 0 0 0 0 0 0 0 0 STD5.60
2026-05-19 15:28:16 7 17.20 0.035000 41.649648 41.62752893 0 0 0 0 0 0 0 0 STD5.60
2026-05-19 15:23:14 10 16.70 0.050000 41.649648 41.62752893 0 0 0 0 0 0 0 0 STD5.60
2026-05-19 15:18:10 16 17.30 0.080000 41.649648 41.62752893 0 0 0 0 0 0 0 0 STD5.60
2026-05-19 15:13:08 15 19.10 0.075000 41.649648 41.62752893 0 0 0 0 0 0 0 0 STD5.60
2026-05-19 15:08:05 23 19.10 0.115000 41.649648 41.62752893 0 0 0 0 0 0 0 0 STD5.60
2026-05-19 15:03:03 17 18.20 0.085000 41.649648 41.62752893 0 0 0 0 0 0 0 0 STD5.60
2026-05-19 14:58:02 17 20.30 0.085000 41.649648 41.62752893 0 0 0 0 0 0 0 0 STD5.60
2026-05-19 14:53:00 27 20.00 0.135000 41.649648 41.62752893 0 0 0 0 0 0 0 0 STD5.60
2026-05-19 14:47:58 13 18.00 0.065000 41.649648 41.62752893 0 0 0 0 0 0 0 0 STD5.60
2026-05-19 14:42:56 19 17.90 0.095000 41.649648 41.62752893 0 0 0 0 0 0 0 0 STD5.60
2026-05-19 14:37:53 18 16.10 0.090000 41.649648 41.62752893 0 0 0 0 0 0 0 0 STD5.60
2026-05-19 14:32:51 13 17.50 0.065000 41.649648 41.62752893 0 0 0 0 0 0 0 0 STD5.60
2026-05-19 14:27:49 17 18.50 0.085000 41.649648 41.62752893 0 0 0 0 0 0 0 0 STD5.60
2026-05-19 14:22:47 13 16.80 0.065000 41.649648 41.62752893 0 0 0 0 0 0 0 0 STD5.60
2026-05-19 14:17:44 19 18.00 0.095000 41.649648 41.62752893 0 0 0 0 0 0 0 0 STD5.60
2026-05-19 14:12:41 23 18.70 0.115000 41.649648 41.62752893 0 0 0 0 0 0 0 0 STD5.60
2026-05-19 14:07:39 15 17.10 0.075000 41.649648 41.62752893 0 0 0 0 0 0 0 0 STD5.60
2026-05-19 14:02:37 9 16.50 0.045000 41.649648 41.62752893 0 0 0 0 0 0 0 0 STD5.60
2026-05-19 13:57:35 21 16.40 0.105000 41.649648 41.62752893 0 0 0 0 0 0 0 0 STD5.60
2026-05-19 13:52:33 18 15.60 0.090000 41.649648 41.62752893 0 0 0 0 0 0 0 0 STD5.60
2026-05-19 13:47:31 12 16.40 0.060000 41.649648 41.62752893 0 0 0 0 0 0 0 0 STD5.60
2026-05-19 13:42:29 23 17.60 0.115000 41.649648 41.62752893 0 0 0 0 0 0 0 0 STD5.60
2026-05-19 13:37:27 19 17.40 0.095000 41.649648 41.62752893 0 0 0 0 0 0 0 0 STD5.60
2026-05-19 13:32:25 14 18.20 0.070000 41.649648 41.62752893 0 0 0 0 0 0 0 0 STD5.60
2026-05-19 13:27:23 24 17.30 0.120000 41.649648 41.62752893 0 0 0 0 0 0 0 0 STD5.60
2026-05-19 13:22:21 14 16.20 0.070000 41.649648 41.62752893 0 0 0 0 0 0 0 0 STD5.60
2026-05-19 13:17:16 12 18.20 0.060000 41.649648 41.62752893 0 0 0 0 0 0 0 0 STD5.60
2026-05-19 13:12:14 17 21.80 0.085000 41.649648 41.62752893 0 0 0 0 0 0 0 0 STD5.60
2026-05-19 13:07:12 31 21.50 0.155000 41.649648 41.62752893 0 0 0 0 0 0 0 0 STD5.60
2026-05-19 13:02:11 22 17.60 0.110000 41.649648 41.62752893 0 0 0 0 0 0 0 0 STD5.60
2026-05-19 12:57:09 22 16.80 0.110000 41.649648 41.62752893 0 0 0 0 0 0 0 0 STD5.60
2026-05-19 12:52:07 19 18.20 0.095000 41.649648 41.62752893 0 0 0 0 0 0 0 0 STD5.60
2026-05-19 12:47:05 20 18.10 0.100000 41.649648 41.62752893 0 0 0 0 0 0 0 0 STD5.60
2026-05-19 12:42:02 17 18.90 0.085000 41.649648 41.62752893 0 0 0 0 0 0 0 0 STD5.60
2026-05-19 12:37:00 30 21.20 0.150000 41.649648 41.62752893 0 0 0 0 0 0 0 0 STD5.60
2026-05-19 12:31:58 23 19.40 0.115000 41.649648 41.62752893 0 0 0 0 0 0 0 0 STD5.60
2026-05-19 12:26:56 15 16.80 0.075000 41.649648 41.62752893 0 0 0 0 0 0 0 0 STD5.60
2026-05-19 12:21:54 20 17.30 0.100000 41.649648 41.62752893 0 0 0 0 0 0 0 0 STD5.60
2026-05-19 12:16:50 13 19.00 0.065000 41.649648 41.62752893 0 0 0 0 0 0 0 0 STD5.60
2026-05-19 12:11:48 17 18.00 0.085000 41.649648 41.62752893 0 0 0 0 0 0 0 0 STD5.60
2026-05-19 12:06:45 8 16.30 0.040000 41.649648 41.62752893 0 0 0 0 0 0 0 0 STD5.60
2026-05-19 12:01:43 8 17.60 0.040000 41.649648 41.62752893 0 0 0 0 0 0 0 0 STD5.60
2026-05-19 11:56:41 13 18.80 0.065000 41.649648 41.62752893 0 0 0 0 0 0 0 0 STD5.60
2026-05-19 11:51:40 15 18.40 0.075000 41.649648 41.62752893 0 0 0 0 0 0 0 0 STD5.60
2026-05-19 11:46:38 16 18.40 0.080000 41.649648 41.62752893 0 0 0 0 0 0 0 0 STD5.60
2026-05-19 11:41:35 17 18.70 0.085000 41.649648 41.62752893 0 0 0 0 0 0 0 0 STD5.60
2026-05-19 11:36:34 15 18.60 0.075000 41.649648 41.62752893 0 0 0 0 0 0 0 0 STD5.60
2026-05-19 11:31:31 19 18.50 0.095000 41.649648 41.62752893 0 0 0 0 0 0 0 0 STD5.60
2026-05-19 11:26:29 20 12.90 0.100000 41.649648 41.62752893 0 0 0 0 0 0 0 0 STD5.60
2026-05-19 11:21:27 15 3.80 0.075000 41.649648 41.62752893 0 0 0 0 0 0 0 0 STD5.60
2026-05-19 11:16:22 20 19.10 0.100000 41.649648 41.62752893 0 0 0 0 0 0 0 0 STD5.60
2026-05-19 11:11:20 16 18.40 0.080000 41.649648 41.62752893 0 0 0 0 0 0 0 0 STD5.60
2026-05-19 11:06:18 23 17.70 0.115000 41.649648 41.62752893 0 0 0 0 0 0 0 0 STD5.60
2026-05-19 11:01:16 17 18.60 0.085000 41.649648 41.62752893 0 0 0 0 0 0 0 0 STD5.60
2026-05-19 10:56:14 22 20.80 0.110000 41.649648 41.62752893 0 0 0 0 0 0 0 0 STD5.60
2026-05-19 10:51:12 19 22.40 0.095000 41.649648 41.62752893 0 0 0 0 0 0 0 0 STD5.60
2026-05-19 10:46:10 20 19.80 0.100000 41.649648 41.62752893 0 0 0 0 0 0 0 0 STD5.60
2026-05-19 10:41:08 17 17.90 0.085000 41.649648 41.62752893 0 0 0 0 0 0 0 0 STD5.60
2026-05-19 10:36:06 21 16.90 0.105000 41.649648 41.62752893 0 0 0 0 0 0 0 0 STD5.60
2026-05-19 10:31:05 14 16.00 0.070000 41.649648 41.62752893 0 0 0 0 0 0 0 0 STD5.60
2026-05-19 10:26:02 16 17.50 0.080000 41.649648 41.62752893 0 0 0 0 0 0 0 0 STD5.60
2026-05-19 10:21:00 16 17.90 0.080000 41.649648 41.62752893 0 0 0 0 0 0 0 0 STD5.60
2026-05-19 10:15:55 16 18.10 0.080000 41.649648 41.62752893 0 0 0 0 0 0 0 0 STD5.60
2026-05-19 10:10:53 23 16.60 0.115000 41.649648 41.62752893 0 0 0 0 0 0 0 0 STD5.60
2026-05-19 10:05:51 20 14.90 0.100000 41.649648 41.62752893 0 0 0 0 0 0 0 0 STD5.60
2026-05-19 10:00:50 24 17.80 0.120000 41.649648 41.62752893 0 0 0 0 0 0 0 0 STD5.60
2026-05-19 09:55:47 22 17.70 0.110000 41.649648 41.62752893 0 0 0 0 0 0 0 0 STD5.60
2026-05-19 09:50:45 15 17.50 0.075000 41.649648 41.62752893 0 0 0 0 0 0 0 0 STD5.60
2026-05-19 09:45:43 19 18.00 0.095000 41.649648 41.62752893 0 0 0 0 0 0 0 0 STD5.60
2026-05-19 09:40:41 15 16.70 0.075000 41.649648 41.62752893 0 0 0 0 0 0 0 0 STD5.60
2026-05-19 09:35:39 20 17.90 0.100000 41.649648 41.62752893 0 0 0 0 0 0 0 0 STD5.60
2026-05-19 09:30:37 18 19.80 0.090000 41.649648 41.62752893 0 0 0 0 0 0 0 0 STD5.60
2026-05-19 09:25:35 27 20.70 0.135000 41.649648 41.62752893 0 0 0 0 0 0 0 0 STD5.60
2026-05-19 09:20:33 15 18.90 0.075000 41.649648 41.62752893 0 0 0 0 0 0 0 0 STD5.60
2026-05-19 09:15:28 13 19.20 0.065000 41.649648 41.62752893 0 0 0 0 0 0 0 0 STD5.60
2026-05-19 09:10:26 26 19.80 0.130000 41.649648 41.62752893 0 0 0 0 0 0 0 0 STD5.60
2026-05-19 09:05:24 22 17.40 0.110000 41.649648 41.62752893 0 0 0 0 0 0 0 0 STD5.60
2026-05-19 09:00:22 16 16.60 0.080000 41.649648 41.62752893 0 0 0 0 0 0 0 0 STD5.60
2026-05-19 08:55:20 17 16.30 0.085000 41.649648 41.62752893 0 0 0 0 0 0 0 0 STD5.60
2026-05-19 08:50:18 19 15.90 0.095000 41.649648 41.62752893 0 0 0 0 0 0 0 0 STD5.60
2026-05-19 08:45:16 9 17.50 0.045000 41.649648 41.62752893 0 0 0 0 0 0 0 0 STD5.60
2026-05-19 08:40:14 23 18.40 0.115000 41.649648 41.62752893 0 0 0 0 0 0 0 0 STD5.60
2026-05-19 08:35:12 17 19.20 0.085000 41.649648 41.62752893 0 0 0 0 0 0 0 0 STD5.60
2026-05-19 08:30:10 25 19.10 0.125000 41.649648 41.62752893 0 0 0 0 0 0 0 0 STD5.60
2026-05-19 08:25:08 13 17.10 0.065000 41.649648 41.62752893 0 0 0 0 0 0 0 0 STD5.60
2026-05-19 08:20:05 19 16.20 0.095000 41.649648 41.62752893 0 0 0 0 0 0 0 0 STD5.60
2026-05-19 08:15:01 10 17.30 0.050000 41.649648 41.62752893 0 0 0 0 0 0 0 0 STD5.60
2026-05-19 08:09:59 21 18.00 0.105000 41.649648 41.62752893 0 0 0 0 0 0 0 0 STD5.60
2026-05-19 08:04:57 20 16.80 0.100000 41.649648 41.62752893 0 0 0 0 0 0 0 0 STD5.60
2026-05-19 07:59:55 19 15.70 0.095000 41.649648 41.62752893 0 0 0 0 0 0 0 0 STD5.60
2026-05-19 07:54:53 11 16.70 0.055000 41.649648 41.62752893 0 0 0 0 0 0 0 0 STD5.60
2026-05-19 07:49:50 19 18.70 0.095000 41.649648 41.62752893 0 0 0 0 0 0 0 0 STD5.60
2026-05-19 07:44:49 18 18.40 0.090000 41.649648 41.62752893 0 0 0 0 0 0 0 0 STD5.60
2026-05-19 07:39:46 17 16.50 0.085000 41.649648 41.62752893 0 0 0 0 0 0 0 0 STD5.60
2026-05-19 07:34:44 12 16.90 0.060000 41.649648 41.62752893 0 0 0 0 0 0 0 0 STD5.60
2026-05-19 07:29:42 15 18.50 0.075000 41.649648 41.62752893 0 0 0 0 0 0 0 0 STD5.60
2026-05-19 07:24:40 20 19.10 0.100000 41.649648 41.62752893 0 0 0 0 0 0 0 0 STD5.60
2026-05-19 07:19:38 22 19.90 0.110000 41.649648 41.62752893 0 0 0 0 0 0 0 0 STD5.60
2026-05-19 07:14:34 14 19.50 0.070000 41.649648 41.62752893 0 0 0 0 0 0 0 0 STD5.60
2026-05-19 07:09:32 13 17.10 0.065000 41.649648 41.62752893 0 0 0 0 0 0 0 0 STD5.60
2026-05-19 07:04:30 12 16.50 0.060000 41.649648 41.62752893 0 0 0 0 0 0 0 0 STD5.60
2026-05-19 06:59:29 18 18.20 0.090000 41.649648 41.62752893 0 0 0 0 0 0 0 0 STD5.60
2026-05-19 06:54:29 25 18.00 0.125000 41.649648 41.62752893 0 0 0 0 0 0 0 0 STD5.60
2026-05-19 06:49:24 22 16.70 0.110000 41.649648 41.62752893 0 0 0 0 0 0 0 0 STD5.60
2026-05-19 06:44:23 14 16.90 0.070000 41.649648 41.62752893 0 0 0 0 0 0 0 0 STD5.60
2026-05-19 06:39:20 21 18.60 0.105000 41.649648 41.62752893 0 0 0 0 0 0 0 0 STD5.60
2026-05-19 06:34:18 24 19.00 0.120000 41.649648 41.62752893 0 0 0 0 0 0 0 0 STD5.60
2026-05-19 06:29:17 14 18.30 0.070000 41.649648 41.62752893 0 0 0 0 0 0 0 0 STD5.60
2026-05-19 06:24:15 19 19.10 0.095000 41.649648 41.62752893 0 0 0 0 0 0 0 0 STD5.60
2026-05-19 06:19:13 20 20.00 0.100000 41.649648 41.62752893 0 0 0 0 0 0 0 0 STD5.60
2026-05-19 06:14:09 22 17.20 0.110000 41.649648 41.62752893 0 0 0 0 0 0 0 0 STD5.60
2026-05-19 06:09:07 19 16.70 0.095000 41.649648 41.62752893 0 0 0 0 0 0 0 0 STD5.60
2026-05-19 06:04:05 16 18.80 0.080000 41.649648 41.62752893 0 0 0 0 0 0 0 0 STD5.60
2026-05-19 05:59:03 20 18.00 0.100000 41.649648 41.62752893 0 0 0 0 0 0 0 0 STD5.60
2026-05-19 05:54:01 15 16.40 0.075000 41.649648 41.62752893 0 0 0 0 0 0 0 0 STD5.60
2026-05-19 05:48:59 16 15.10 0.080000 41.649648 41.62752893 0 0 0 0 0 0 0 0 STD5.60
2026-05-19 05:43:58 17 16.70 0.085000 41.649648 41.62752893 0 0 0 0 0 0 0 0 STD5.60
2026-05-19 05:38:55 16 17.00 0.080000 41.649648 41.62752893 0 0 0 0 0 0 0 0 STD5.60
2026-05-19 05:33:53 16 16.10 0.080000 41.649648 41.62752893 0 0 0 0 0 0 0 0 STD5.60
2026-05-19 05:28:51 13 17.00 0.065000 41.649648 41.62752893 0 0 0 0 0 0 0 0 STD5.60
2026-05-19 05:23:52 20 17.30 0.100000 41.649648 41.62752893 0 0 0 0 0 0 0 0 STD5.60
2026-05-19 05:18:47 22 18.50 0.110000 41.649648 41.62752893 0 0 0 0 0 0 0 0 STD5.60
2026-05-19 05:13:44 19 18.60 0.095000 41.649648 41.62752893 0 0 0 0 0 0 0 0 STD5.60
2026-05-19 05:08:42 15 17.90 0.075000 41.649648 41.62752893 0 0 0 0 0 0 0 0 STD5.60
2026-05-19 05:03:40 15 18.40 0.075000 41.649648 41.62752893 0 0 0 0 0 0 0 0 STD5.60
2026-05-19 04:58:37 20 18.60 0.100000 41.649648 41.62752893 0 0 0 0 0 0 0 0 STD5.60
2026-05-19 04:53:35 20 17.90 0.100000 41.649648 41.62752893 0 0 0 0 0 0 0 0 STD5.60
2026-05-19 04:48:33 13 16.30 0.065000 41.649648 41.62752893 0 0 0 0 0 0 0 0 STD5.60
2026-05-19 04:43:32 12 16.10 0.060000 41.649648 41.62752893 0 0 0 0 0 0 0 0 STD5.60
2026-05-19 04:38:29 16 17.90 0.080000 41.649648 41.62752893 0 0 0 0 0 0 0 0 STD5.60
2026-05-19 04:33:28 21 19.30 0.105000 41.649648 41.62752893 0 0 0 0 0 0 0 0 STD5.60
2026-05-19 04:28:26 24 19.10 0.120000 41.649648 41.62752893 0 0 0 0 0 0 0 0 STD5.60
2026-05-19 04:23:24 21 17.10 0.105000 41.649648 41.62752893 0 0 0 0 0 0 0 0 STD5.60
2026-05-19 04:18:22 19 17.80 0.095000 41.649648 41.62752893 0 0 0 0 0 0 0 0 STD5.60
2026-05-19 04:13:18 18 17.90 0.090000 41.649648 41.62752893 0 0 0 0 0 0 0 0 STD5.60
2026-05-19 04:08:16 16 18.80 0.080000 41.649648 41.62752893 0 0 0 0 0 0 0 0 STD5.60
2026-05-19 04:03:14 18 19.90 0.090000 41.649648 41.62752893 0 0 0 0 0 0 0 0 STD5.60
2026-05-19 03:58:12 13 17.70 0.065000 41.649648 41.62752893 0 0 0 0 0 0 0 0 STD5.60
2026-05-19 03:53:10 19 19.50 0.095000 41.649648 41.62752893 0 0 0 0 0 0 0 0 STD5.60
2026-05-19 03:48:08 26 19.00 0.130000 41.649648 41.62752893 0 0 0 0 0 0 0 0 STD5.60
2026-05-19 03:43:06 19 16.60 0.095000 41.649648 41.62752893 0 0 0 0 0 0 0 0 STD5.60
2026-05-19 03:38:04 16 17.40 0.080000 41.649648 41.62752893 0 0 0 0 0 0 0 0 STD5.60
2026-05-19 03:33:02 10 16.90 0.050000 41.649648 41.62752893 0 0 0 0 0 0 0 0 STD5.60
2026-05-19 03:28:00 15 17.00 0.075000 41.649648 41.62752893 0 0 0 0 0 0 0 0 STD5.60
2026-05-19 03:22:57 19 17.50 0.095000 41.649648 41.62752893 0 0 0 0 0 0 0 0 STD5.60
2026-05-19 03:17:55 15 21.10 0.075000 41.649648 41.62752893 0 0 0 0 0 0 0 0 STD5.60
2026-05-19 03:12:51 23 20.00 0.115000 41.649648 41.62752893 0 0 0 0 0 0 0 0 STD5.60
2026-05-19 03:07:49 15 16.40 0.075000 41.649648 41.62752893 0 0 0 0 0 0 0 0 STD5.60
2026-05-19 03:02:47 19 17.80 0.095000 41.649648 41.62752893 0 0 0 0 0 0 0 0 STD5.60
2026-05-19 02:57:45 26 18.00 0.130000 41.649648 41.62752893 0 0 0 0 0 0 0 0 STD5.60
2026-05-19 02:52:43 25 17.00 0.125000 41.649648 41.62752893 0 0 0 0 0 0 0 0 STD5.60
2026-05-19 02:47:41 15 18.30 0.075000 41.649648 41.62752893 0 0 0 0 0 0 0 0 STD5.60
2026-05-19 02:42:40 15 19.20 0.075000 41.649648 41.62752893 0 0 0 0 0 0 0 0 STD5.60
2026-05-19 02:37:37 25 18.50 0.125000 41.649648 41.62752893 0 0 0 0 0 0 0 0 STD5.60
2026-05-19 02:32:35 23 18.70 0.115000 41.649648 41.62752893 0 0 0 0 0 0 0 0 STD5.60
2026-05-19 02:27:34 16 17.60 0.080000 41.649648 41.62752893 0 0 0 0 0 0 0 0 STD5.60
2026-05-19 02:22:32 13 17.90 0.065000 41.649648 41.62752893 0 0 0 0 0 0 0 0 STD5.60
2026-05-19 02:17:30 14 18.90 0.070000 41.649648 41.62752893 0 0 0 0 0 0 0 0 STD5.60
2026-05-19 02:12:26 17 18.50 0.085000 41.649648 41.62752893 0 0 0 0 0 0 0 0 STD5.60
2026-05-19 02:07:24 19 17.50 0.095000 41.649648 41.62752893 0 0 0 0 0 0 0 0 STD5.60
2026-05-19 02:02:21 17 17.00 0.085000 41.649648 41.62752893 0 0 0 0 0 0 0 0 STD5.60
2026-05-19 01:57:20 17 18.80 0.085000 41.649648 41.62752893 0 0 0 0 0 0 0 0 STD5.60
2026-05-19 01:52:18 19 17.80 0.095000 41.649648 41.62752893 0 0 0 0 0 0 0 0 STD5.60
2026-05-19 01:47:16 18 18.70 0.090000 41.649648 41.62752893 0 0 0 0 0 0 0 0 STD5.60
2026-05-19 01:42:14 24 20.80 0.120000 41.649648 41.62752893 0 0 0 0 0 0 0 0 STD5.60
2026-05-19 01:37:12 18 18.90 0.090000 41.649648 41.62752893 0 0 0 0 0 0 0 0 STD5.60
2026-05-19 01:32:10 15 18.40 0.075000 41.649648 41.62752893 0 0 0 0 0 0 0 0 STD5.60
2026-05-19 01:27:08 16 18.40 0.080000 41.649648 41.62752893 0 0 0 0 0 0 0 0 STD5.60
2026-05-19 01:22:05 17 16.40 0.085000 41.649648 41.62752893 0 0 0 0 0 0 0 0 STD5.60
2026-05-19 01:17:04 11 16.20 0.055000 41.649648 41.62752893 0 0 0 0 0 0 0 0 STD5.60
2026-05-19 01:12:00 24 18.50 0.120000 41.649648 41.62752893 0 0 0 0 0 0 0 0 STD5.60
2026-05-19 01:06:58 28 20.30 0.140000 41.649648 41.62752893 0 0 0 0 0 0 0 0 STD5.60
2026-05-19 01:01:56 15 18.90 0.075000 41.649648 41.62752893 0 0 0 0 0 0 0 0 STD5.60
2026-05-19 00:56:53 20 18.30 0.100000 41.649648 41.62752893 0 0 0 0 0 0 0 0 STD5.60
2026-05-19 00:51:51 17 18.40 0.085000 41.649648 41.62752893 0 0 0 0 0 0 0 0 STD5.60
2026-05-19 00:46:49 17 18.10 0.085000 41.649648 41.62752893 0 0 0 0 0 0 0 0 STD5.60
2026-05-19 00:41:47 9 18.30 0.045000 41.649648 41.62752893 0 0 0 0 0 0 0 0 STD5.60
2026-05-19 00:36:45 16 18.00 0.080000 41.649648 41.62752893 0 0 0 0 0 0 0 0 STD5.60
2026-05-19 00:31:43 20 18.00 0.100000 41.649648 41.62752893 0 0 0 0 0 0 0 0 STD5.60
2026-05-19 00:26:41 18 18.40 0.090000 41.649648 41.62752893 0 0 0 0 0 0 0 0 STD5.60
2026-05-19 00:21:39 13 17.30 0.065000 41.649648 41.62752893 0 0 0 0 0 0 0 0 STD5.60
2026-05-19 00:16:37 11 16.00 0.055000 41.649648 41.62752893 0 0 0 0 0 0 0 0 STD5.60
2026-05-19 00:11:33 16 18.00 0.080000 41.649648 41.62752893 0 0 0 0 0 0 0 0 STD5.60
2026-05-19 00:06:31 23 19.70 0.115000 41.649648 41.62752893 0 0 0 0 0 0 0 0 STD5.60
2026-05-19 00:01:31 19 18.20 0.095000 41.649648 41.62752893 0 0 0 0 0 0 0 0 STD5.60
2026-05-18 23:56:31 17 17.00 0.085000 41.649648 41.62752893 0 0 0 0 0 0 0 0 STD5.60
2026-05-18 23:51:25 21 18.20 0.105000 41.649648 41.62752893 0 0 0 0 0 0 0 0 STD5.60
2026-05-18 23:46:23 19 19.10 0.095000 41.649648 41.62752893 0 0 0 0 0 0 0 0 STD5.60
2026-05-18 23:41:21 24 19.40 0.120000 41.649648 41.62752893 0 0 0 0 0 0 0 0 STD5.60
2026-05-18 23:36:19 20 16.80 0.100000 41.649648 41.62752893 0 0 0 0 0 0 0 0 STD5.60
2026-05-18 23:31:17 13 16.70 0.065000 41.649648 41.62752893 0 0 0 0 0 0 0 0 STD5.60
2026-05-18 23:26:15 11 18.80 0.055000 41.649648 41.62752893 0 0 0 0 0 0 0 0 STD5.60
2026-05-18 23:21:13 13 17.60 0.065000 41.649648 41.62752893 0 0 0 0 0 0 0 0 STD5.60
2026-05-18 23:16:11 21 15.70 0.105000 41.649648 41.62752893 0 0 0 0 0 0 0 0 STD5.60
2026-05-18 23:11:07 17 17.60 0.085000 41.649648 41.62752893 0 0 0 0 0 0 0 0 STD5.60
2026-05-18 23:06:05 24 18.20 0.120000 41.649648 41.62752893 0 0 0 0 0 0 0 0 STD5.60
2026-05-18 23:01:04 15 17.70 0.075000 41.649648 41.62752893 0 0 0 0 0 0 0 0 STD5.60
2026-05-18 22:56:01 10 18.40 0.050000 41.649648 41.62752893 0 0 0 0 0 0 0 0 STD5.60
2026-05-18 22:50:58 17 17.60 0.085000 41.649648 41.62752893 0 0 0 0 0 0 0 0 STD5.60
2026-05-18 22:45:57 18 19.60 0.090000 41.649648 41.62752893 0 0 0 0 0 0 0 0 STD5.60
2026-05-18 22:40:55 19 19.60 0.095000 41.649648 41.62752893 0 0 0 0 0 0 0 0 STD5.60
2026-05-18 22:35:52 21 16.60 0.105000 41.649648 41.62752893 0 0 0 0 0 0 0 0 STD5.60
2026-05-18 22:30:50 18 18.70 0.090000 41.649648 41.62752893 0 0 0 0 0 0 0 0 STD5.60
2026-05-18 22:25:48 19 18.30 0.095000 41.649648 41.62752893 0 0 0 0 0 0 0 0 STD5.60
2026-05-18 22:20:46 15 16.70 0.075000 41.649648 41.62752893 0 0 0 0 0 0 0 0 STD5.60
2026-05-18 22:15:45 13 19.60 0.065000 41.649648 41.62752893 0 0 0 0 0 0 0 0 STD5.60
2026-05-18 22:10:41 29 19.60 0.145000 41.649648 41.62752893 0 0 0 0 0 0 0 0 STD5.60
2026-05-18 22:05:38 15 17.00 0.075000 41.649648 41.62752893 0 0 0 0 0 0 0 0 STD5.60
2026-05-18 22:00:36 16 17.40 0.080000 41.649648 41.62752893 0 0 0 0 0 0 0 0 STD5.60
2026-05-18 21:55:35 19 17.00 0.095000 41.649648 41.62752893 0 0 0 0 0 0 0 0 STD5.60
2026-05-18 21:50:32 17 17.20 0.085000 41.649648 41.62752893 0 0 0 0 0 0 0 0 STD5.60
2026-05-18 21:45:30 17 19.00 0.085000 41.649648 41.62752893 0 0 0 0 0 0 0 0 STD5.60
2026-05-18 21:40:28 22 18.80 0.110000 41.649648 41.62752893 0 0 0 0 0 0 0 0 STD5.60
2026-05-18 21:35:26 17 17.30 0.085000 41.649648 41.62752893 0 0 0 0 0 0 0 0 STD5.60
2026-05-18 21:30:24 23 18.00 0.115000 41.649648 41.62752893 0 0 0 0 0 0 0 0 STD5.60
2026-05-18 21:25:22 23 19.40 0.115000 41.649648 41.62752893 0 0 0 0 0 0 0 0 STD5.60
2026-05-18 21:20:19 20 17.60 0.100000 41.649648 41.62752893 0 0 0 0 0 0 0 0 STD5.60
2026-05-18 21:15:15 19 16.90 0.095000 41.649648 41.62752893 0 0 0 0 0 0 0 0 STD5.60
2026-05-18 21:10:13 14 18.50 0.070000 41.649648 41.62752893 0 0 0 0 0 0 0 0 STD5.60
2026-05-18 21:05:11 29 17.90 0.145000 41.649648 41.62752893 0 0 0 0 0 0 0 0 STD5.60
2026-05-18 21:00:10 13 16.60 0.065000 41.649648 41.62752893 0 0 0 0 0 0 0 0 STD5.60
2026-05-18 20:55:08 23 18.40 0.115000 41.649648 41.62752893 0 0 0 0 0 0 0 0 STD5.60
2026-05-18 20:50:05 21 17.80 0.105000 41.649648 41.62752893 0 0 0 0 0 0 0 0 STD5.60
2026-05-18 20:45:03 20 16.30 0.100000 41.649648 41.62752893 0 0 0 0 0 0 0 0 STD5.60
2026-05-18 20:40:02 17 17.70 0.085000 41.649648 41.62752893 0 0 0 0 0 0 0 0 STD5.60
2026-05-18 20:34:59 18 17.90 0.090000 41.649648 41.62752893 0 0 0 0 0 0 0 0 STD5.60
2026-05-18 20:29:57 20 16.90 0.100000 41.649648 41.62752893 0 0 0 0 0 0 0 0 STD5.60
2026-05-18 20:24:55 15 17.20 0.075000 41.649648 41.62752893 0 0 0 0 0 0 0 0 STD5.60
2026-05-18 20:19:53 21 17.60 0.105000 41.649648 41.62752893 0 0 0 0 0 0 0 0 STD5.60
2026-05-18 20:14:49 16 18.40 0.080000 41.649648 41.62752893 0 0 0 0 0 0 0 0 STD5.60
2026-05-18 20:09:47 18 19.20 0.090000 41.649648 41.62752893 0 0 0 0 0 0 0 0 STD5.60
2026-05-18 20:04:45 17 20.10 0.085000 41.649648 41.62752893 0 0 0 0 0 0 0 0 STD5.60
2026-05-18 19:59:43 22 19.70 0.110000 41.649648 41.62752893 0 0 0 0 0 0 0 0 STD5.60
2026-05-18 19:54:41 16 18.90 0.080000 41.649648 41.62752893 0 0 0 0 0 0 0 0 STD5.60
2026-05-18 19:49:39 16 19.40 0.080000 41.649648 41.62752893 0 0 0 0 0 0 0 0 STD5.60
2026-05-18 19:44:36 18 18.90 0.090000 41.649648 41.62752893 0 0 0 0 0 0 0 0 STD5.60
2026-05-18 19:39:35 18 18.90 0.090000 41.649648 41.62752893 0 0 0 0 0 0 0 0 STD5.60
2026-05-18 19:34:32 21 18.90 0.105000 41.649648 41.62752893 0 0 0 0 0 0 0 0 STD5.60
2026-05-18 19:29:30 26 19.20 0.130000 41.649648 41.62752893 0 0 0 0 0 0 0 0 STD5.60
2026-05-18 19:24:28 26 17.70 0.130000 41.649648 41.62752893 0 0 0 0 0 0 0 0 STD5.60
2026-05-18 19:19:26 18 18.50 0.090000 41.649648 41.62752893 0 0 0 0 0 0 0 0 STD5.60
2026-05-18 19:14:22 20 19.30 0.100000 41.649648 41.62752893 0 0 0 0 0 0 0 0 STD5.60
2026-05-18 19:09:20 19 17.90 0.095000 41.649648 41.62752893 0 0 0 0 0 0 0 0 STD5.60
2026-05-18 19:04:18 13 17.60 0.065000 41.649648 41.62752893 0 0 0 0 0 0 0 0 STD5.60
2026-05-18 18:59:16 17 17.60 0.085000 41.649648 41.62752893 0 0 0 0 0 0 0 0 STD5.60
2026-05-18 18:54:14 18 17.90 0.090000 41.649648 41.62752893 0 0 0 0 0 0 0 0 STD5.60
2026-05-18 18:49:12 19 18.50 0.095000 41.649648 41.62752893 0 0 0 0 0 0 0 0 STD5.60
2026-05-18 18:44:09 24 19.80 0.120000 41.649648 41.62752893 0 0 0 0 0 0 0 0 STD5.60
2026-05-18 18:39:08 24 21.90 0.120000 41.649648 41.62752893 0 0 0 0 0 0 0 0 STD5.60
2026-05-18 18:34:05 26 21.90 0.130000 41.649648 41.62752893 0 0 0 0 0 0 0 0 STD5.60
2026-05-18 18:29:03 21 18.20 0.105000 41.649648 41.62752893 0 0 0 0 0 0 0 0 STD5.60
2026-05-18 18:24:01 13 17.30 0.065000 41.649648 41.62752893 0 0 0 0 0 0 0 0 STD5.60
2026-05-18 18:18:59 19 17.60 0.095000 41.649648 41.62752893 0 0 0 0 0 0 0 0 STD5.60
2026-05-18 18:13:55 20 16.20 0.100000 41.649648 41.62752893 0 0 0 0 0 0 0 0 STD5.60
2026-05-18 18:08:53 16 16.40 0.080000 41.649648 41.62752893 0 0 0 0 0 0 0 0 STD5.60
2026-05-18 18:03:51 10 17.60 0.050000 41.649648 41.62752893 0 0 0 0 0 0 0 0 STD5.60
2026-05-18 17:58:49 16 19.00 0.080000 41.649648 41.62752893 0 0 0 0 0 0 0 0 STD5.60
Geiger Counter World Map       A real time radiation map.     Copyright 2015 All rights reserved.